When you browse on this site, cookies collect data to enhance your experience and personalize the content and advertising you see.
Visit our Privacy Policy to learn more. By continuing to use the site, you agree to this use of cookies and data.
  • In Schweiz
  • Länderverzeichnis
  • Für 7 Tage
  • Wassertemperatur
  • Wetterkarte
  • Widgets
  • user-avatar
    Anmelden

    Stündliche Wetter Franceville

    Heute, 23 Oktober, Mittwoch

    Zeit Temperatur Niederschläge Wind Luftdruck Luftfeuchtigkeit
    00:00 +24°C° 0 mm 1 m/S 730 mmHg 97%
    01:00 +24°C° 0 mm 1 m/S 729 mmHg 98%
    02:00 +24°C° 0 mm 1 m/S 729 mmHg 98%
    03:00 +22°C° 0 mm 0 m/S 729 mmHg 98%
    04:00 +21°C° 0 mm 0 m/S 729 mmHg 98%
    05:00 +22°C° 0 mm 0 m/S 729 mmHg 97%
    06:00 +22°C° 0 mm 0 m/S 730 mmHg 95%
    07:00 +23°C° 0 mm 0 m/S 731 mmHg 94%
    08:00 +25°C° 0.1 mm 0 m/S 731 mmHg 85%
    09:00 +26°C° 0.1 mm 0 m/S 731 mmHg 77%
    10:00 +28°C° 0.1 mm 0 m/S 731 mmHg 68%
    11:00 +31°C° 0.2 mm 1 m/S 730 mmHg 64%
    12:00 +32°C° 0.2 mm 1 m/S 729 mmHg 59%
    13:00 +33°C° 0.2 mm 1 m/S 729 mmHg 55%
    14:00 +33°C° 0.4 mm 1 m/S 728 mmHg 59%
    15:00 +32°C° 0.4 mm 1 m/S 727 mmHg 64%
    16:00 +31°C° 0.4 mm 2 m/S 726 mmHg 69%
    17:00 +29°C° 0.1 mm 1 m/S 727 mmHg 74%
    18:00 +28°C° 0.1 mm 1 m/S 728 mmHg 79%
    19:00 +26°C° 0.1 mm 1 m/S 728 mmHg 85%
    20:00 +26°C° 0.5 mm 1 m/S 729 mmHg 88%
    21:00 +25°C° 0.5 mm 1 m/S 729 mmHg 91%
    22:00 +25°C° 0.5 mm 1 m/S 730 mmHg 93%
    23:00 +24°C° 0.7 mm 1 m/S 730 mmHg 94%

    Morgen, 24 Oktober, Donnerstag

    Zeit Temperatur Niederschläge Wind Luftdruck Luftfeuchtigkeit
    00:00 +22°C° 0.7 mm 0 m/S 730 mmHg 95%
    01:00 +22°C° 0.7 mm 0 m/S 730 mmHg 96%
    02:00 +22°C° 0.1 mm 0 m/S 729 mmHg 97%
    03:00 +22°C° 0.1 mm 0 m/S 729 mmHg 97%
    04:00 +21°C° 0.1 mm 0 m/S 729 mmHg 98%
    05:00 +22°C° 0 mm 0 m/S 730 mmHg 97%
    06:00 +22°C° 0 mm 0 m/S 730 mmHg 96%
    07:00 +23°C° 0 mm 0 m/S 731 mmHg 95%
    08:00 +25°C° 0 mm 0 m/S 731 mmHg 85%
    09:00 +27°C° 0 mm 0 m/S 731 mmHg 75%
    10:00 +31°C° 0 mm 1 m/S 731 mmHg 66%
    11:00 +32°C° 0.2 mm 1 m/S 730 mmHg 62%
    12:00 +33°C° 0.2 mm 1 m/S 729 mmHg 59%
    13:00 +34°C° 0.2 mm 1 m/S 729 mmHg 55%
    14:00 +33°C° 0.8 mm 1 m/S 728 mmHg 63%
    15:00 +31°C° 0.8 mm 1 m/S 728 mmHg 72%
    16:00 +30°C° 0.8 mm 1 m/S 727 mmHg 80%
    17:00 +29°C° 1.9 mm 1 m/S 728 mmHg 84%
    18:00 +27°C° 1.9 mm 1 m/S 729 mmHg 88%
    19:00 +25°C° 1.9 mm 1 m/S 729 mmHg 92%
    20:00 +25°C° 3.3 mm 1 m/S 730 mmHg 94%
    21:00 +25°C° 3.3 mm 1 m/S 730 mmHg 96%
    22:00 +25°C° 3.3 mm 1 m/S 731 mmHg 98%
    23:00 +24°C° 2.7 mm 1 m/S 731 mmHg 98%

    übermorgen, 25 Oktober, Freitag

    Zeit Temperatur Niederschläge Wind Luftdruck Luftfeuchtigkeit
    00:00 +22°C° 2.7 mm 0 m/S 730 mmHg 98%
    01:00 +22°C° 2.7 mm 0 m/S 730 mmHg 99%
    02:00 +22°C° 0.5 mm 0 m/S 730 mmHg 99%
    03:00 +24°C° 0.5 mm 1 m/S 730 mmHg 98%
    04:00 +24°C° 0.5 mm 1 m/S 730 mmHg 98%
    05:00 +24°C° 0.1 mm 1 m/S 730 mmHg 98%
    06:00 +24°C° 0.1 mm 1 m/S 731 mmHg 97%
    07:00 +24°C° 0.1 mm 1 m/S 731 mmHg 97%
    08:00 +25°C° 0 mm 1 m/S 732 mmHg 90%
    09:00 +27°C° 0 mm 1 m/S 732 mmHg 83%
    10:00 +28°C° 0 mm 1 m/S 732 mmHg 76%
    11:00 +30°C° 0 mm 1 m/S 731 mmHg 69%
    12:00 +31°C° 0 mm 2 m/S 730 mmHg 61%
    13:00 +34°C° 0 mm 2 m/S 730 mmHg 54%
    14:00 +32°C° 0 mm 1 m/S 729 mmHg 56%
    15:00 +32°C° 0 mm 1 m/S 729 mmHg 57%
    16:00 +32°C° 0 mm 1 m/S 728 mmHg 58%
    17:00 +30°C° 0.1 mm 1 m/S 729 mmHg 66%
    18:00 +27°C° 0.1 mm 0 m/S 729 mmHg 73%
    19:00 +25°C° 0.1 mm 0 m/S 729 mmHg 80%
    20:00 +25°C° 0.2 mm 0 m/S 730 mmHg 83%
    21:00 +26°C° 0.2 mm 1 m/S 730 mmHg 85%
    22:00 +26°C° 0.2 mm 1 m/S 731 mmHg 87%
    23:00 +23°C° 1 mm 0 m/S 731 mmHg 90%

    26 Oktober, Samstag

    Zeit Temperatur Niederschläge Wind Luftdruck Luftfeuchtigkeit
    00:00 +23°C° 1 mm 0 m/S 730 mmHg 94%
    01:00 +22°C° 1 mm 0 m/S 730 mmHg 97%
    02:00 +22°C° 0.5 mm 0 m/S 730 mmHg 97%
    03:00 +22°C° 0.5 mm 0 m/S 730 mmHg 97%
    04:00 +21°C° 0.5 mm 0 m/S 730 mmHg 98%
    05:00 +22°C° 0.8 mm 0 m/S 730 mmHg 97%
    06:00 +22°C° 0.8 mm 0 m/S 731 mmHg 97%
    07:00 +22°C° 0.8 mm 0 m/S 731 mmHg 96%
    08:00 +23°C° 0.3 mm 0 m/S 732 mmHg 91%
    09:00 +26°C° 0.3 mm 1 m/S 732 mmHg 85%
    10:00 +27°C° 0.3 mm 1 m/S 732 mmHg 80%
    11:00 +27°C° 0.5 mm 1 m/S 731 mmHg 82%
    12:00 +27°C° 0.5 mm 1 m/S 731 mmHg 85%
    13:00 +26°C° 0.5 mm 1 m/S 730 mmHg 88%
    14:00 +26°C° 1.6 mm 1 m/S 730 mmHg 91%
    15:00 +25°C° 1.6 mm 1 m/S 729 mmHg 94%
    16:00 +24°C° 1.6 mm 1 m/S 729 mmHg 97%
    17:00 +24°C° 5 mm 1 m/S 730 mmHg 97%
    18:00 +23°C° 5 mm 1 m/S 730 mmHg 98%
    19:00 +23°C° 5 mm 1 m/S 731 mmHg 99%
    20:00 +21°C° 0.6 mm 0 m/S 731 mmHg 99%
    21:00 +21°C° 0.6 mm 0 m/S 731 mmHg 99%
    22:00 +21°C° 0.6 mm 0 m/S 731 mmHg 99%
    23:00 +21°C° 0.2 mm 0 m/S 731 mmHg 99%

    27 Oktober, Sonntag

    Zeit Temperatur Niederschläge Wind Luftdruck Luftfeuchtigkeit
    00:00 +21°C° 0.2 mm 0 m/S 731 mmHg 99%
    01:00 +21°C° 0.2 mm 0 m/S 730 mmHg 99%
    02:00 +21°C° 0 mm 0 m/S 730 mmHg 99%
    03:00 +21°C° 0 mm 0 m/S 730 mmHg 99%
    04:00 +21°C° 0 mm 0 m/S 729 mmHg 99%
    05:00 +21°C° 0 mm 0 m/S 730 mmHg 98%
    06:00 +21°C° 0 mm 0 m/S 730 mmHg 97%
    07:00 +21°C° 0 mm 0 m/S 731 mmHg 97%
    08:00 +23°C° 0 mm 0 m/S 731 mmHg 91%
    09:00 +24°C° 0 mm 0 m/S 731 mmHg 85%
    10:00 +25°C° 0 mm 0 m/S 732 mmHg 80%
    11:00 +28°C° 0.1 mm 1 m/S 731 mmHg 77%
    12:00 +28°C° 0.1 mm 1 m/S 730 mmHg 75%
    13:00 +29°C° 0.1 mm 1 m/S 730 mmHg 72%
    14:00 +29°C° 0.7 mm 1 m/S 729 mmHg 74%
    15:00 +29°C° 0.7 mm 1 m/S 729 mmHg 77%
    16:00 +29°C° 0.7 mm 1 m/S 728 mmHg 79%
    17:00 +27°C° 0.4 mm 1 m/S 729 mmHg 85%
    18:00 +26°C° 0.4 mm 1 m/S 729 mmHg 90%
    19:00 +25°C° 0.4 mm 1 m/S 729 mmHg 96%
    20:00 +25°C° 0.2 mm 1 m/S 730 mmHg 96%
    21:00 +23°C° 0.2 mm 0 m/S 730 mmHg 96%
    22:00 +22°C° 0.2 mm 0 m/S 731 mmHg 96%
    23:00 +22°C° 0.6 mm 0 m/S 730 mmHg 96%

    28 Oktober, Montag

    Zeit Temperatur Niederschläge Wind Luftdruck Luftfeuchtigkeit
    00:00 +22°C° 0.6 mm 0 m/S 730 mmHg 96%
    01:00 +24°C° 0.6 mm 1 m/S 730 mmHg 96%
    02:00 +24°C° 0.2 mm 1 m/S 730 mmHg 97%
    03:00 +24°C° 0.2 mm 1 m/S 730 mmHg 97%
    04:00 +23°C° 0.2 mm 1 m/S 729 mmHg 97%
    05:00 +22°C° 0 mm 0 m/S 730 mmHg 96%
    06:00 +22°C° 0 mm 0 m/S 730 mmHg 96%
    07:00 +22°C° 0 mm 0 m/S 731 mmHg 95%
    08:00 +23°C° 0.2 mm 0 m/S 731 mmHg 93%
    09:00 +23°C° 0.2 mm 0 m/S 731 mmHg 90%
    10:00 +24°C° 0.2 mm 0 m/S 731 mmHg 88%
    11:00 +25°C° 1 mm 0 m/S 731 mmHg 86%
    12:00 +28°C° 1 mm 1 m/S 730 mmHg 83%
    13:00 +29°C° 1 mm 1 m/S 729 mmHg 81%
    14:00 +29°C° 1.9 mm 1 m/S 729 mmHg 83%
    15:00 +28°C° 1.9 mm 1 m/S 728 mmHg 86%
    16:00 +28°C° 1.9 mm 1 m/S 728 mmHg 88%
    17:00 +27°C° 0.7 mm 1 m/S 728 mmHg 90%
    18:00 +24°C° 0.7 mm 0 m/S 729 mmHg 92%
    19:00 +23°C° 0.7 mm 0 m/S 729 mmHg 93%
    20:00 +23°C° 0.5 mm 0 m/S 730 mmHg 93%
    21:00 +22°C° 0.5 mm 0 m/S 730 mmHg 94%
    22:00 +22°C° 0.5 mm 0 m/S 731 mmHg 94%
    23:00 +22°C° 0.7 mm 0 m/S 730 mmHg 94%

    29 Oktober, Dienstag

    Zeit Temperatur Niederschläge Wind Luftdruck Luftfeuchtigkeit
    00:00 +22°C° 0.7 mm 0 m/S 730 mmHg 95%
    01:00 +22°C° 0.7 mm 0 m/S 730 mmHg 96%
    02:00 +22°C° 0.4 mm 0 m/S 730 mmHg 96%
    03:00 +22°C° 0.4 mm 0 m/S 729 mmHg 96%
    04:00 +21°C° 0.4 mm 0 m/S 729 mmHg 97%
    05:00 +22°C° 0.1 mm 0 m/S 730 mmHg 96%
    06:00 +22°C° 0.1 mm 0 m/S 730 mmHg 96%
    07:00 +22°C° 0.1 mm 0 m/S 731 mmHg 96%
    08:00 +23°C° 0.7 mm 0 m/S 731 mmHg 95%
    09:00 +23°C° 0.7 mm 0 m/S 731 mmHg 94%
    10:00 +24°C° 0.7 mm 0 m/S 732 mmHg 93%
    11:00 +26°C° 1.1 mm 1 m/S 731 mmHg 92%
    12:00 +26°C° 1.1 mm 1 m/S 730 mmHg 90%
    13:00 +26°C° 1.1 mm 2 m/S 729 mmHg 89%
    14:00 +27°C° 0 mm 2 m/S 729 mmHg 78%
    15:00 +29°C° 0 mm 1 m/S 729 mmHg 67%
    16:00 +30°C° 0 mm 1 m/S 728 mmHg 56%
    17:00 +28°C° 0 mm 1 m/S 729 mmHg 64%
    18:00 +27°C° 0 mm 1 m/S 729 mmHg 71%
    19:00 +23°C° 0 mm 0 m/S 729 mmHg 79%
    20:00 +22°C° 0 mm 0 m/S 730 mmHg 81%
    21:00 +22°C° 0 mm 0 m/S 730 mmHg 84%
    22:00 +21°C° 0 mm 0 m/S 730 mmHg 86%
    23:00 +21°C° 0 mm 0 m/S 730 mmHg 87%
    Mehr zeigen